Location: Unspecified
(41.9031°N, 12.4386°E)
Time: 17:32:27
(UTC+02:00)

ISS - Pass Details

Date: 28 May 2020
Orbit: 417 x 420 km, 51.6° (Epoch: 26 May)

Event Time Altitude Azimuth Distance (km) Brightness Sun altitude
Rises 21:33:42 0° 307° (NW) 2,366 2.4 -9.5°
Reaches altitude 10° 21:36:09 10° 324° (NW) 1,501 0.5 -9.9°
Maximum altitude 21:38:48 21° 16° (NNE) 1,004 -1.5 -10.2°
Drops below altitude 10° 21:41:27 10° 68° (ENE) 1,499 -1.2 -10.6°
Enters shadow 21:42:40 - 78° (ENE) 1,911 -0.8 -10.8°
